Regional Weather Roundup
Issued by NWS

Home | Current Version | Previous Version | Text Only | Print | Product List | Glossary On
Versions: 1 2 3 4 5 6 7 8 9 10 11 12 13 14 15 16 17 18 19 20 21 22 23 24 25 26 27 28
000
ASUS45 KPSR 230310
RWRAZ

ARIZONA HOURLY REGIONAL WEATHER ROUNDUP
NATIONAL WEATHER SERVICE PHOENIX AZ
800 PM MST SUN OCT 22 2017

NOTE: FAIR INDICATES FEW OR NO CLOUDS BELOW 12,000 FEET WITH NO
SIGNIFICANT WEATHER AND/OR OBSTRUCTIONS TO VISIBILITY.

AZZ001>003-036-230400-
NORTHWEST ARIZONA

CITY           SKY/WX    TMP DP  RH WIND       PRES   REMARKS
BULLHEAD CITY  CLEAR     82  28  14 N17       30.12S
KINGMAN        CLEAR     65  27  23 E10       30.29R
$$

AZZ004>008-015-016-018-230400-
NORTH CENTRAL ARIZONA

CITY           SKY/WX    TMP DP  RH WIND       PRES   REMARKS
GRAND CANYON   CLEAR     39  13  34 CALM      30.48R
WILLIAMS       CLEAR     46  23  39 S7        30.47S
PRESCOTT       CLEAR     59  24  26 S10       30.34S
FLAGSTAFF      CLEAR     42  14  32 CALM      30.49R
PAYSON         CLEAR     64  16  15 NE5       30.36S
PAGE           CLEAR     59  20  22 SE6       30.35R
$$

AZZ009>014-017-230400-
NORTHEAST ARIZONA

CITY           SKY/WX    TMP DP  RH WIND       PRES   REMARKS
WINSLOW        CLEAR     48   9  20 W6        30.38S
SAINT JOHNS    CLEAR     51  17  26 SW3       30.39S
WINDOW ROCK    CLEAR     46  19  34 CALM      30.46R
SHOW LOW       CLEAR     52  16  24 E5        30.45S
$$

AZZ540-542>544-546-548-230400-
GREATER PHOENIX AREA

CITY           SKY/WX    TMP DP  RH WIND       PRES   REMARKS
PHOENIX        CLEAR     82  24  12 W5        30.07R
BUCKEYE        CLEAR     77  14   9 NW9       30.09R
LUKE AFB       CLEAR     76  32  20 CALM      30.06S
DEER VALLEY    CLEAR     78  15   9 CALM      30.09S
SCOTTSDALE     CLEAR     79  22  12 CALM      30.11R
MESA-FALCON    CLEAR     81  28  15 W3        30.10R
MESA-GATEWAY   CLEAR     75  27  16 VRB3      30.10R
CHANDLER       CLEAR     77  28  16 CALM      30.08S
$$

AZZ539-553-230400-
SOUTHWEST MARICOPA COUNTY AND PINAL COUNTY

CITY           SKY/WX    TMP DP  RH WIND       PRES   REMARKS
CASA GRANDE    NOT AVBL
$$

AZZ503-504-507>509-230400-
SOUTHEAST ARIZONA

CITY           SKY/WX    TMP DP  RH WIND       PRES   REMARKS
TUCSON         CLEAR     74  24  15 W6        30.17R
DAVIS-MONTHAN  CLEAR     75  21  13 NW5       30.15R
RYAN FIELD     CLEAR     72  21  15 SW8       30.17R
NOGALES        CLEAR     74  23  15 NE9       30.22R
SIERRA VISTA   CLEAR     64  23  21 S5        30.30R
DOUGLAS        CLEAR     63  23  21 NE7       30.25R
SAFFORD        CLEAR     64  12  13 CALM      30.19R
$$

AZZ532-230400-
SOUTHWEST ARIZONA

CITY           SKY/WX    TMP DP  RH WIND       PRES   REMARKS
YUMA           CLEAR     79  23  12 NW5       30.06S
$$

CAZ041-043-047-048-061-525>527-560>570-230400-
SOUTHERN CALIFORNIA

CITY           SKY/WX    TMP DP  RH WIND       PRES   REMARKS
DOWNTOWN L.A.  CLEAR     75  47  36 CALM      30.05R
L.A. AIRPORT   PTCLDY    69  56  62 W9        30.06R
SAN DIEGO      PTCLDY    77  38  24 CALM      30.07R
BURBANK        CLEAR     79  36  21 CALM      30.08R
ONTARIO        CLEAR     79  35  20 CALM      30.09R
RIVERSIDE      CLEAR     82  30  15 E3        30.09R
PALM SPRINGS   CLEAR     82  32  16 W7        30.12R
EL CENTRO NAS  PTCLDY    73  18  12 W9        30.08S
IMPERIAL       PTCLDY    75  29  18 N6        30.06S
BLYTHE         CLEAR     77  23  13 CALM      30.09R
NEEDLES        CLEAR     81  32  17 NW5       30.14R
$$

NVZ020-UTZ003-230400-
SOUTHERN NEVADA-UTAH

CITY           SKY/WX    TMP DP  RH WIND       PRES   REMARKS
LAS VEGAS      CLEAR     74  31  20 CALM      30.24R
SALT LAKE CITY MOCLDY    60  32  34 SE6       30.34S
$$

NMZ009-TXZ055-230400-
NEW MEXICO-WEST TEXAS

CITY           SKY/WX    TMP DP  RH WIND       PRES   REMARKS
ALBUQUERQUE    PTCLDY    62  24  23 N9        30.36S
EL PASO        CLEAR     67  17  14 SW6       30.26R
$$


........................KEY........................
SKY/WX - SKY CONDITION/WEATHER
TMP    - TEMPERATURE IN FAHRENHEIT
DP     - DEW POINT IN FAHRENHEIT
RH     - RELATIVE HUMIDITY IN PERCENT
WIND   - DIRECTION AND SPEED IN MILES PER HOUR (MPH)
VRB    - VARIABLE WIND DIRECTION
PRES   - MEAN SEA LEVEL PRESSURE IN INCHES OF MERCURY
         F - FALLING PRESSURE   R - RISING PRESSURE
         S - STEADY PRESSURE
VSB    - VISIBILITY IN MILES
HX     - HEAT INDEX IN FAHRENHEIT
WCI    - WIND CHILL INDEX IN FAHRENHEIT
TC     - TEMPERATURE IN CELSIUS WHICH IS ALSO KNOWN AS
         TEMPERATURE IN CENTIGRADE
AFB    - AIR FORCE BASE
         LUKE AFB IS LUKE AIR FORCE BASE
         DAVIS-MONTHAN IS DAVIS-MONTHAN AIR FORCE BASE
NAS    - NAVAL AIR STATION
         EL CENTRO NAS IS EL CENTRO NAVAL AIR STATION
N/A    - NOT AVAILABLE





USA.gov is the U.S. government's official web portal to all federal, state and local government web resources and services.